Theta_e
326 321 317 318 320 318 317 321 323 323 324 322 320 318 314 315 321 322 321 321 321 321 323 324 324 325 325 325 325 324 324 325 325 326 326 325 326 326 327 326 324 323 324 324 325 324 325 326 326 326 326 325 325 323 323 322 322 323 323 322 322 322 322
324 317 317 321 322 321 320 319 320 322 323 320 319 319 320 322 322 322 322 322 322 322 321 320 320 320 321 323 323 322 323 325 325 325 325 325 325 326 326 325 324 323 324 325 325 325 324 325 326 325 325 324 323 323 323 323 323 323 322 321 321 321 322
321 316 319 322 322 322 321 319 320 322 322 321 322 323 323 324 324 322 322 323 323 323 320 317 318 319 319 321 322 322 323 324 324 324 324 324 324 325 325 325 325 324 325 325 325 325 325 324 324 324 324 323 323 323 322 322 322 322 321 321 321 321 322
316 315 319 321 322 321 319 319 321 322 322 322 322 322 322 323 324 323 322 323 323 323 320 318 319 320 320 321 321 321 322 323 324 324 324 324 324 324 325 325 325 324 324 324 324 325 325 323 323 324 323 322 321 321 320 319 319 319 320 320 321 321 321
313 314 315 316 318 317 317 321 323 322 323 323 322 321 320 320 323 323 322 322 323 322 320 318 318 319 319 319 320 319 321 322 324 324 323 324 324 324 324 324 325 325 324 324 323 324 324 323 322 322 321 320 319 318 317 317 318 319 320 320 320 320 320
315 314 312 312 312 313 318 323 323 321 322 323 323 321 320 320 321 323 322 322 322 321 318 315 316 318 319 319 320 320 321 323 323 323 323 324 324 324 324 324 324 324 324 324 323 323 324 323 321 320 319 318 317 317 317 316 317 318 319 319 319 319 319
317 314 310 309 309 312 318 322 321 320 320 322 323 322 321 320 320 321 322 322 321 318 313 312 314 317 318 319 320 322 323 323 323 323 323 323 323 323 323 324 324 324 324 324 323 323 322 322 320 319 319 318 318 318 317 316 316 316 317 316 317 318 319
318 313 309 308 308 312 318 320 320 319 318 317 319 321 320 320 319 320 321 321 318 314 311 310 311 314 316 318 321 323 322 322 322 322 322 322 321 321 322 323 323 323 323 323 322 322 321 320 319 319 318 318 319 319 318 316 315 315 314 314 313 314 315
320 312 309 308 309 314 319 321 321 319 316 311 311 314 316 316 316 316 318 319 316 313 310 308 308 310 311 315 320 323 321 320 320 320 320 320 319 318 320 322 323 323 323 322 322 321 320 319 318 318 318 317 318 319 319 317 315 313 312 312 311 309 309
318 310 309 310 312 318 322 322 322 320 317 312 308 308 310 310 309 310 314 315 314 312 310 306 305 306 307 309 315 319 319 318 318 318 318 318 318 317 318 320 321 321 321 322 322 320 320 319 318 318 318 317 315 316 318 317 315 313 310 309 310 307 305
316 310 310 312 315 320 322 322 322 321 319 315 309 305 306 306 305 307 309 311 312 312 309 306 305 305 305 305 308 311 311 312 312 312 313 315 317 317 317 318 320 318 318 319 319 318 318 319 318 318 318 318 316 315 315 315 314 313 310 307 307 307 305
315 311 311 312 317 320 320 321 322 321 319 316 310 305 306 306 305 306 307 309 310 310 307 305 304 304 304 304 305 305 306 306 306 306 306 309 313 317 317 318 319 318 316 315 315 315 316 317 318 318 318 317 316 316 314 313 313 313 310 307 306 306 307
313 311 311 313 318 320 318 320 322 320 319 316 309 305 306 306 306 305 306 306 306 306 305 304 304 304 304 305 305 305 306 307 307 307 306 305 307 312 315 318 319 318 317 316 315 315 315 315 316 317 319 318 316 316 314 313 313 313 310 307 306 307 308
311 311 315 317 319 319 317 320 321 320 319 315 308 305 305 305 305 305 305 305 304 304 304 304 305 306 307 307 308 308 309 309 310 310 309 309 307 307 310 314 318 318 318 317 316 315 314 315 314 314 317 318 317 316 313 313 314 313 309 308 306 306 309
313 315 321 321 319 317 316 320 321 319 319 314 306 304 305 304 305 306 305 304 304 305 305 306 308 308 309 309 309 310 309 310 310 310 310 310 310 309 307 308 311 313 314 314 313 313 313 314 313 312 314 317 317 315 313 313 315 313 310 308 307 307 309
317 318 322 321 317 314 315 319 319 317 316 312 305 304 305 304 305 306 305 306 306 307 308 308 309 309 309 310 309 309 309 309 309 309 310 309 309 310 310 309 310 311 312 313 313 313 313 313 313 313 314 315 314 313 313 314 315 313 310 308 308 308 309
319 320 321 320 316 313 315 317 315 313 314 311 305 305 306 305 306 306 306 307 308 308 309 310 310 310 309 310 310 310 309 310 310 310 311 312 311 311 310 311 312 313 313 313 314 314 314 313 313 314 314 314 313 314 314 314 314 314 312 310 309 309 309
321 322 321 320 317 315 317 317 314 312 313 311 306 305 308 309 308 308 307 307 308 309 310 310 310 310 310 310 310 310 310 310 310 311 313 315 315 315 313 312 312 311 312 314 315 314 314 314 314 314 314 314 314 314 314 314 314 314 313 312 311 309 309
322 322 321 319 316 316 317 317 315 313 312 310 308 309 312 312 311 311 310 308 309 309 309 310 310 310 310 310 310 310 310 311 312 313 315 315 315 316 316 315 314 312 312 313 314 314 314 315 315 315 314 314 314 315 314 314 314 314 313 312 311 310 311
321 321 322 320 317 317 317 317 316 313 312 311 311 313 316 315 314 314 314 313 313 312 310 310 311 310 310 310 310 311 312 313 314 315 315 315 315 315 315 315 315 314 314 314 314 314 314 315 315 315 315 315 315 315 314 314 314 314 314 313 311 311 311
319 320 321 321 320 319 319 318 315 312 313 313 313 315 318 317 315 316 317 317 317 316 315 314 314 313 312 313 314 314 315 316 316 316 316 316 316 316 316 315 315 315 315 315 315 314 314 314 314 315 315 315 315 315 314 314 314 314 314 313 312 312 311
320 321 321 321 321 320 320 318 314 311 314 316 315 316 318 317 316 316 317 317 317 317 317 317 317 316 316 317 317 317 317 317 317 317 317 317 317 317 317 317 316 316 316 316 316 316 316 315 315 315 314 315 315 315 315 315 315 315 314 314 314 313 312
320 321 321 321 321 320 320 319 316 313 315 317 317 317 318 318 317 316 316 317 317 316 317 317 317 317 317 318 318 318 318 318 318 318 318 319 319 318 318 317 317 316 317 317 316 317 316 316 315 315 315 315 315 315 315 314 314 315 315 314 314 314 314
321 321 320 321 321 320 320 320 318 316 317 319 319 319 319 319 318 317 316 316 317 317 317 317 317 318 318 318 318 318 318 318 318 318 318 319 319 319 318 317 316 316 316 316 316 316 317 317 316 315 315 315 314 314 314 313 314 315 315 315 315 314 314
322 320 320 322 322 321 321 321 320 318 318 319 319 319 319 319 319 318 317 316 316 317 317 317 318 318 318 319 319 318 318 318 318 319 319 319 319 319 319 318 317 317 316 316 316 316 317 318 317 317 317 316 315 314 313 314 315 315 315 315 315 315 315
323 322 322 323 323 323 322 322 321 319 318 318 318 319 319 319 319 319 318 318 317 317 317 317 318 318 318 318 318 318 318 318 318 318 318 318 318 319 319 318 317 318 317 317 316 316 317 318 318 317 317 317 316 316 315 315 315 315 315 314 314 314 314
321 321 321 321 321 322 322 322 321 320 319 319 318 320 320 320 319 319 319 319 318 318 318 317 318 318 318 318 318 318 318 318 318 318 318 318 318 318 317 316 316 317 318 318 317 316 317 318 318 318 318 317 317 316 316 316 316 315 315 314 314 314 314
319 319 319 319 319 319 319 320 320 318 318 318 318 319 320 321 320 320 320 320 319 319 319 318 318 318 318 318 318 318 318 318 318 319 319 319 318 317 316 315 315 316 317 317 317 316 316 317 317 318 318 318 317 317 317 316 316 315 315 315 315 315 314
317 317 317 317 317 317 317 317 316 316 317 318 318 318 318 318 318 318 318 319 319 319 319 319 319 319 319 319 319 318 318 318 318 319 319 318 318 317 317 316 316 316 316 317 316 316 316 317 317 317 317 317 317 317 317 316 316 315 315 315 315 314 314
314 314 314 315 316 317 318 318 318 318 319 319 320 319 317 316 315 315 315 315 315 315 316 316 317 317 318 318 318 318 317 318 318 318 318 318 317 317 317 317 317 316 316 316 316 316 317 317 317 317 316 315 316 318 317 317 316 315 315 315 314 314 313
312 312 313 314 314 315 316 317 317 318 318 318 317 316 315 315 315 314 314 313 313 313 312 313 313 314 314 315 316 316 317 317 318 318 318 318 317 317 317 317 317 316 316 315 316 317 317 317 317 317 313 312 314 316 315 315 314 313 313 313 313 313 313
311 311 312 312 313 313 314 314 314 315 315 314 314 314 314 314 313 313 313 313 314 314 313 313 312 312 312 313 313 313 314 315 316 317 317 317 317 317 317 316 316 315 315 316 317 317 317 316 316 314 310 308 309 310 310 311 310 309 310 311 311 312 311
309 310 310 310 311 311 312 312 312 313 313 313 313 313 313 313 312 313 313 314 315 315 314 314 313 312 311 311 311 311 312 312 313 314 315 316 316 316 316 316 316 315 315 316 316 316 316 316 314 311 310 308 306 306 307 307 307 306 307 308 308 308 308
307 307 307 307 308 308 309 310 310 311 311 311 312 312 312 312 313 313 313 313 314 314 314 314 314 314 312 311 311 311 311 311 311 312 313 314 314 316 316 315 315 314 314 315 315 315 315 314 312 310 309 307 305 305 306 305 305 306 307 307 307 308 307
302 302 302 302 302 303 304 305 306 306 307 307 307 308 309 310 311 312 312 312 312 312 313 313 314 314 314 313 312 311 310 310 310 311 312 313 314 316 315 315 315 314 313 313 314 314 314 314 312 311 309 308 307 306 306 306 307 307 308 308 308 308 308
299 299 299 299 299 299 299 299 300 301 301 302 302 302 303 304 306 308 310 311 311 312 312 312 312 313 313 313 313 312 311 310 310 311 312 313 315 315 315 314 314 314 313 312 313 313 314 314 312 309 307 307 307 307 306 307 308 308 309 309 308 308 307
299 299 299 299 299 299 299 298 298 299 299 300 301 302 302 302 303 304 305 307 309 310 310 311 311 311 311 311 312 313 313 311 310 310 312 314 316 315 314 314 314 314 313 312 313 314 313 312 309 306 305 306 307 307 307 308 309 309 309 308 307 306 306
Wind_Speed
17 15 14 13 11 9 11 12 10 8 6 4 3 3 4 8 10 10 9 9 8 8 7 6 6 6 6 6 6 7 8 8 7 7 7 9 11 11 10 8 9 9 8 8 8 9 13 14 12 10 10 9 7 6 4 4 4 4 3 3 3 3 3
15 14 14 13 11 9 10 10 10 10 8 7 8 8 7 7 8 9 9 7 7 6 5 5 6 6 6 6 6 6 7 7 7 7 8 9 10 12 12 10 10 10 9 8 8 7 10 14 14 13 13 12 10 8 7 7 7 6 5 5 5 5 4
18 17 16 14 12 11 10 11 12 12 10 10 10 10 9 8 6 7 7 7 6 5 4 4 6 8 8 7 7 6 6 7 7 7 7 8 9 10 12 11 11 11 10 11 11 9 10 12 14 15 15 14 14 13 10 9 8 7 6 5 5 5 5
20 19 17 15 14 13 12 12 12 11 10 10 10 9 9 9 8 7 7 7 6 4 3 5 7 8 8 8 8 7 7 8 8 9 9 8 9 10 10 11 11 10 9 9 10 10 11 13 18 19 16 15 16 16 14 12 11 10 9 7 6 6 7
20 18 16 15 14 14 14 14 12 9 9 10 10 9 8 9 10 9 8 7 7 5 4 6 7 7 8 8 7 7 8 9 10 11 12 11 11 10 11 11 11 9 7 7 8 9 10 14 19 21 19 18 19 18 16 16 15 13 12 10 9 8 8
18 15 14 13 14 14 14 14 13 10 11 11 10 9 8 9 10 10 9 8 6 5 4 6 7 8 8 8 8 9 10 11 13 15 15 15 14 12 12 12 11 10 8 8 8 10 13 17 20 22 22 20 21 20 18 16 16 15 13 11 10 9 9
16 14 13 13 14 14 13 13 12 10 12 13 12 10 8 8 9 10 10 9 7 5 3 6 8 9 9 10 11 12 13 13 14 15 16 16 15 14 13 12 12 12 12 11 11 13 17 19 20 23 23 21 19 18 16 15 14 14 13 11 8 7 7
15 13 13 13 13 13 12 12 10 9 9 12 13 12 10 8 8 10 12 10 8 5 4 6 9 11 11 12 14 14 14 14 14 14 14 14 14 13 13 13 14 15 14 14 14 15 18 19 19 20 22 22 19 15 12 11 10 10 10 9 8 7 5
15 13 13 13 13 13 12 10 8 8 7 7 10 11 11 9 9 11 14 12 9 6 5 7 10 12 13 15 16 16 15 14 14 13 13 13 13 12 13 13 14 15 14 14 15 14 16 18 17 17 17 17 16 15 13 10 8 8 7 6 7 7 5
15 13 13 14 14 13 11 9 7 6 4 5 8 10 10 11 11 13 14 12 10 7 7 9 11 13 13 15 16 16 15 14 13 13 13 13 13 12 12 13 14 14 13 13 14 13 13 15 15 15 14 11 9 10 13 13 11 8 6 4 4 7 8
14 12 13 14 14 13 11 10 8 5 3 3 7 9 11 12 12 13 13 12 11 9 9 11 12 13 14 15 15 14 13 12 11 11 11 13 14 14 13 13 14 14 13 13 13 12 11 12 14 16 16 13 9 4 5 11 13 9 7 5 5 6 9
14 12 13 15 14 13 12 11 8 6 4 3 6 9 10 11 12 12 12 12 11 10 10 12 13 15 16 16 16 15 14 13 12 12 11 12 14 15 14 14 14 14 13 12 12 11 9 9 11 16 18 16 13 9 6 6 8 8 7 5 6 6 7
15 14 14 15 15 14 13 12 9 7 6 3 5 8 10 11 12 13 12 13 13 13 13 14 16 18 19 18 17 17 16 15 15 15 14 13 12 13 15 15 15 14 12 10 9 8 8 8 8 11 18 19 16 14 12 7 3 6 8 6 5 5 6
16 15 14 15 15 14 14 12 10 9 7 4 6 9 10 12 13 13 14 15 16 16 16 18 19 19 19 18 17 16 15 14 13 14 14 13 12 11 13 16 16 15 13 11 10 9 9 10 8 8 14 20 21 19 16 9 4 6 9 8 6 5 5
16 16 15 15 15 14 15 13 11 10 7 5 7 9 11 13 14 14 16 18 19 19 19 20 20 19 18 16 15 14 13 13 12 12 12 11 12 12 12 14 15 15 14 12 11 10 8 8 9 8 10 17 22 21 15 9 7 7 9 10 10 8 7
18 17 16 15 14 15 15 14 12 10 7 6 8 11 12 15 16 16 17 19 20 20 20 20 19 17 16 14 13 12 11 10 9 10 10 10 10 11 12 14 15 14 14 12 10 9 9 7 7 8 12 16 20 18 13 9 9 9 10 11 11 10 8
19 17 15 13 13 14 14 13 12 9 7 7 9 12 13 14 15 16 17 19 19 19 19 19 17 15 13 12 11 10 9 7 6 7 8 9 9 9 11 13 14 13 12 12 10 10 10 9 8 10 14 17 18 16 13 10 8 8 10 12 11 10 8
17 16 13 11 11 12 13 12 10 9 7 7 10 12 13 14 15 15 16 17 17 17 17 17 16 15 12 11 10 8 7 7 7 7 7 7 7 7 8 10 12 12 12 11 11 11 11 11 11 12 13 14 15 15 13 12 10 8 9 12 12 11 9
17 16 14 12 11 11 12 10 8 8 8 8 10 12 12 12 13 14 14 14 15 14 14 14 15 15 14 12 10 9 9 9 10 10 9 8 7 6 7 7 9 11 12 13 14 14 14 13 12 12 13 13 13 13 13 13 12 9 9 11 12 12 11
18 16 14 13 12 12 12 10 8 8 9 9 11 12 11 10 11 12 12 11 11 11 11 11 11 12 13 12 10 10 11 12 12 11 10 8 8 8 8 7 7 8 11 13 15 16 16 16 15 13 13 14 14 15 14 14 13 12 11 12 13 13 13
18 18 16 14 14 14 13 11 10 11 11 11 12 13 12 10 10 11 11 10 9 9 8 8 8 9 10 10 10 9 11 13 13 11 10 10 10 10 10 9 8 8 9 11 13 15 16 17 17 15 14 15 15 15 15 14 14 14 14 13 14 15 16
21 19 17 16 16 15 14 12 11 13 13 12 14 14 12 12 12 13 13 12 11 11 11 10 9 10 10 10 10 10 10 11 11 10 10 11 11 12 12 11 10 10 10 11 12 14 15 16 16 15 14 15 17 17 16 15 13 14 16 16 16 17 18
21 20 17 17 17 15 14 12 12 13 13 13 14 14 13 13 13 14 15 15 13 14 14 14 13 13 13 12 12 11 11 11 11 12 12 12 12 12 12 12 12 12 13 13 13 15 17 17 17 17 16 17 19 19 19 17 15 15 17 18 18 19 18
19 19 17 16 16 15 14 13 12 13 14 14 14 14 14 14 14 15 16 16 16 16 16 16 16 16 16 16 15 14 14 14 15 15 15 15 15 14 14 15 15 15 15 16 16 17 19 20 20 21 20 19 21 22 22 21 18 17 19 21 20 19 18
17 17 17 16 16 16 15 14 14 14 15 14 13 14 15 16 16 17 17 17 18 18 17 16 15 16 17 18 18 17 17 18 18 19 19 19 18 18 17 18 18 19 19 19 19 19 21 21 22 22 22 21 21 22 22 21 20 19 20 23 22 20 19
13 14 16 16 16 16 16 16 16 17 17 16 15 14 15 17 18 19 19 19 19 20 19 18 17 17 18 19 20 20 20 20 21 22 22 21 21 20 20 21 22 22 22 22 22 23 24 23 22 22 23 22 21 21 20 20 19 18 19 21 22 21 20
10 9 10 10 11 12 14 16 18 19 18 18 17 16 15 17 19 20 20 20 21 22 22 22 22 22 22 22 23 23 23 23 24 24 23 22 22 22 23 24 25 25 25 25 25 26 26 26 25 24 23 22 21 21 20 19 19 19 18 19 19 19 19
13 12 11 10 9 9 10 12 15 16 16 16 18 18 18 18 20 21 22 22 23 24 24 25 25 25 25 25 25 26 26 26 26 25 24 22 23 24 24 25 25 26 28 28 26 26 27 27 27 26 23 21 21 21 20 19 19 19 18 18 18 17 17
11 11 10 9 9 9 8 8 8 9 8 9 12 14 13 12 14 16 18 20 22 24 24 25 26 26 26 26 26 27 27 27 27 26 25 24 24 25 25 26 26 27 29 29 26 24 24 26 26 25 23 21 21 21 20 19 19 19 18 18 17 17 16
11 10 8 6 5 5 5 6 6 6 7 8 10 10 9 8 8 9 11 12 15 17 19 21 23 24 25 26 26 26 26 26 26 26 25 25 24 25 26 26 26 27 29 28 25 22 23 24 24 23 21 20 20 20 20 19 19 18 18 18 17 17 16
9 9 8 7 6 5 6 7 8 9 10 11 11 11 11 11 10 9 9 10 11 14 16 17 18 20 21 22 23 24 24 25 26 26 25 25 25 26 27 26 26 27 26 24 23 22 22 23 23 22 19 17 17 18 18 18 18 18 18 17 16 16 15
6 6 6 6 7 7 8 9 10 11 12 12 12 13 13 14 14 13 12 11 12 14 15 15 16 18 18 19 20 21 22 23 25 25 26 25 25 26 26 26 25 24 23 22 22 21 22 23 23 19 16 15 15 15 16 17 17 16 15 14 14 13 13
7 8 9 9 10 10 11 12 13 13 13 14 15 15 16 17 17 16 15 15 16 17 17 16 16 17 18 18 19 20 21 22 23 23 24 24 24 24 24 24 23 21 20 20 21 22 23 23 20 16 15 15 13 13 15 16 15 13 12 11 12 12 12
12 13 14 15 16 16 16 17 18 18 18 18 19 18 18 19 19 18 18 17 17 18 19 18 18 19 19 19 19 20 22 22 23 23 23 23 23 23 23 23 22 21 19 20 22 23 23 21 17 15 15 14 13 13 15 15 13 12 11 10 11 11 11
14 15 16 18 19 20 20 21 22 23 24 24 24 24 24 24 24 23 22 21 20 19 19 19 19 20 20 20 20 22 22 22 22 23 24 24 23 23 23 22 21 21 21 22 22 22 21 19 17 16 16 15 15 15 15 13 12 11 11 10 10 11 12
13 14 15 16 17 18 19 21 21 22 23 24 25 25 26 26 27 28 27 26 25 23 22 20 20 20 20 21 22 24 24 23 22 23 25 25 25 24 24 24 23 22 22 22 22 21 21 20 18 18 18 16 16 15 14 13 12 11 10 11 12 13 13
13 14 14 14 15 16 17 18 19 19 20 21 22 22 22 23 24 26 28 28 28 27 26 24 23 21 21 21 23 26 27 25 23 24 25 25 26 26 26 25 25 24 23 22 22 21 21 21 20 19 18 17 16 15 14 14 13 13 12 12 13 13 13
Wind_Direction
182 179 171 166 161 160 164 169 179 180 183 200 194 188 166 149 143 134 129 127 123 121 128 142 145 145 147 141 145 156 164 175 169 165 178 180 178 176 176 181 177 173 178 178 178 175 161 145 139 141 140 138 137 131 126 128 134 135 135 134 126 120 107
187 177 164 164 165 162 166 173 179 177 170 149 128 131 146 153 150 144 143 137 122 109 117 144 141 136 147 145 143 148 156 166 160 155 169 172 172 179 179 170 161 160 164 171 176 184 174 157 148 145 141 139 132 120 114 111 109 108 110 109 107 100 92
186 177 167 169 172 171 176 175 171 171 163 142 129 135 153 166 163 155 156 146 129 111 105 136 140 134 140 141 138 144 151 152 146 148 159 157 153 168 179 178 177 175 171 175 174 174 179 167 152 146 143 140 129 116 108 106 103 103 99 93 94 93 93
183 178 171 171 176 180 182 174 167 169 165 154 152 153 159 173 180 174 164 152 144 138 119 132 142 139 138 138 136 138 143 141 137 141 147 145 143 154 167 176 188 193 189 187 178 171 180 169 150 144 140 134 125 116 110 103 93 89 88 85 85 91 95
181 176 174 175 181 185 182 174 170 177 177 169 170 173 166 171 184 188 177 166 162 162 154 148 148 143 137 134 131 132 137 137 134 134 135 132 133 143 152 158 173 188 192 190 177 171 178 166 150 143 139 132 124 117 111 103 94 87 84 87 90 91 95
178 174 175 179 184 186 182 177 180 189 192 187 181 183 176 165 179 194 190 184 185 186 179 162 150 141 136 133 132 135 139 138 135 134 133 132 129 129 136 145 159 169 168 168 167 164 163 158 151 144 139 134 128 123 118 110 104 100 95 92 95 100 102
175 175 179 184 186 187 185 184 187 189 193 198 196 194 192 174 174 191 194 192 197 196 168 156 152 145 142 142 142 147 147 144 141 140 139 137 131 125 127 137 147 153 154 156 157 158 158 158 155 147 139 134 130 128 124 118 113 110 107 102 100 108 115
178 176 180 187 189 189 185 180 178 173 179 195 201 203 204 197 187 190 194 195 197 189 141 139 151 149 148 147 149 154 152 148 148 147 145 140 132 126 126 131 137 140 142 147 150 154 158 158 158 153 145 140 137 134 131 124 119 116 115 113 109 108 119
179 175 178 185 188 186 178 172 169 164 157 163 182 195 199 200 195 188 191 194 191 175 132 131 144 147 151 153 156 158 155 154 156 153 150 146 138 130 127 129 134 136 137 143 146 149 155 158 160 160 158 154 147 145 152 152 140 130 123 123 123 118 120
179 177 181 181 181 178 174 178 176 164 142 129 155 172 174 174 174 177 185 188 184 171 139 132 133 136 144 151 158 162 159 160 162 158 158 155 147 139 134 131 132 132 135 144 148 149 156 166 173 173 176 181 169 152 159 170 169 151 128 119 138 142 138
179 180 183 178 175 174 177 184 182 171 158 142 156 161 160 161 162 168 176 179 180 173 152 139 133 131 135 140 147 152 151 152 152 151 159 163 157 150 144 138 134 130 129 137 143 145 155 172 186 189 189 198 206 198 164 167 172 169 146 123 132 152 151
180 181 183 182 180 179 181 183 183 190 199 174 162 161 159 161 163 165 171 176 180 176 161 148 137 133 134 134 135 135 133 132 128 126 134 151 160 160 154 149 145 140 136 138 142 143 150 164 184 195 200 204 208 222 226 178 170 177 172 150 136 146 157
182 183 185 186 184 182 183 185 188 201 211 194 165 161 160 163 165 166 168 169 168 163 155 145 137 133 132 132 130 128 127 126 121 117 118 125 141 159 165 161 158 158 159 164 167 170 179 182 182 194 204 208 209 215 218 212 204 191 181 178 170 159 160
179 182 185 187 186 184 185 188 195 206 213 198 167 161 160 162 163 162 159 154 151 148 145 141 138 135 133 131 130 128 128 126 121 115 117 119 123 142 164 169 171 175 182 193 197 200 208 212 213 207 203 207 211 213 214 218 232 205 184 186 198 192 180
174 178 184 188 189 189 190 194 200 209 212 191 167 163 161 161 161 160 153 148 146 145 145 145 143 140 139 138 136 135 133 132 129 124 125 127 126 133 151 165 172 177 182 191 196 196 201 209 220 215 193 200 208 208 211 224 234 218 202 196 198 202 200
173 180 187 192 193 192 196 199 202 209 209 184 166 165 163 161 161 161 156 152 150 150 151 151 149 146 146 144 140 138 135 133 132 133 136 141 142 145 152 159 166 172 178 186 191 194 192 187 195 191 176 185 199 201 204 221 231 226 216 206 200 203 201
173 183 194 199 197 194 198 203 203 208 210 185 168 165 164 161 160 162 162 160 159 158 158 158 157 156 153 149 146 143 138 140 146 149 153 155 153 157 165 170 175 181 189 198 201 197 195 192 189 183 177 182 192 198 198 200 208 218 218 211 205 201 202
175 182 195 201 199 197 201 207 206 209 208 184 169 166 162 162 163 164 167 169 169 169 165 163 165 168 166 163 162 158 155 165 178 180 179 172 162 162 172 183 192 200 206 208 206 199 196 200 200 194 194 195 198 200 196 191 197 205 207 207 203 197 205
181 185 193 193 192 197 203 209 211 212 205 185 175 168 163 169 172 170 172 175 178 180 177 173 173 177 181 182 180 179 183 189 195 197 197 195 191 185 185 192 200 210 214 212 211 208 203 206 211 208 209 213 213 208 197 194 202 201 191 196 198 199 207
187 192 194 190 190 198 204 208 209 204 194 184 184 178 171 180 187 182 182 184 187 192 191 187 186 186 189 193 194 193 193 196 201 207 211 216 218 217 217 219 215 214 219 219 219 220 218 218 222 222 217 217 220 217 207 201 201 195 188 191 196 201 207
199 201 200 197 195 197 203 208 207 198 189 184 187 187 184 191 198 195 197 203 206 209 210 208 207 204 201 202 208 212 208 204 206 212 219 226 232 235 238 243 243 234 231 228 226 228 228 227 228 228 225 219 215 213 211 209 203 196 194 193 195 200 205
205 205 203 202 200 200 202 206 201 194 192 188 187 191 194 199 205 206 205 210 217 223 227 229 229 227 222 218 222 229 226 219 220 225 229 232 236 240 244 249 253 251 246 241 238 236 234 230 229 230 228 220 212 207 206 207 206 204 202 197 195 198 203
204 204 202 202 204 206 205 206 203 195 194 195 193 198 204 204 207 209 209 212 221 227 231 235 238 238 235 233 236 242 244 244 247 248 249 248 245 245 250 254 256 256 253 251 250 245 239 233 229 229 230 225 218 214 213 215 217 216 211 206 201 201 205
198 202 204 205 207 208 207 209 209 198 195 200 203 208 213 212 214 218 218 218 223 228 232 236 238 238 238 237 238 244 253 259 260 258 258 258 254 253 256 261 262 260 256 257 258 253 246 239 233 232 234 231 224 221 224 230 234 230 222 216 210 208 210
196 203 208 209 208 208 209 214 214 205 201 208 216 220 222 222 225 229 231 228 229 232 237 239 239 238 237 235 235 242 253 260 262 261 260 259 256 252 255 261 264 263 259 259 261 258 250 244 239 235 234 233 229 227 230 237 242 240 230 223 219 217 218
195 205 210 211 212 214 217 219 217 210 206 209 218 225 228 229 230 233 233 232 232 235 240 243 243 243 242 241 242 248 254 258 260 260 261 261 257 253 256 262 265 264 260 257 260 259 252 246 242 236 231 230 230 230 233 236 238 236 232 229 227 227 227
150 164 179 191 202 212 218 220 219 219 221 221 222 228 235 236 235 235 235 234 234 236 239 243 246 248 250 252 255 258 260 260 261 260 260 260 259 257 260 263 265 265 263 259 260 258 251 244 241 237 233 229 227 229 231 233 231 228 228 230 231 232 234
127 128 131 140 151 166 188 205 214 223 233 235 234 238 244 246 244 244 244 244 243 242 242 244 246 249 252 254 257 259 261 262 261 260 258 258 259 259 260 260 261 262 263 262 259 255 249 245 241 236 233 230 227 227 229 229 228 226 227 231 234 237 240
116 119 124 131 139 144 150 166 187 205 224 239 243 244 249 253 252 253 253 252 250 249 248 249 249 250 252 255 257 258 260 260 260 259 258 259 260 261 260 259 258 259 261 260 256 248 244 243 239 234 232 232 229 227 227 228 227 227 230 235 238 242 245
112 115 121 130 138 144 153 165 183 206 222 234 238 238 241 244 248 257 264 264 261 258 257 257 256 255 254 255 257 258 258 259 258 258 259 260 260 261 260 259 258 258 258 255 247 237 234 235 232 227 228 229 226 224 225 226 227 229 232 236 240 244 247
131 130 134 144 156 167 181 192 203 211 217 223 227 231 235 235 238 249 263 274 279 276 271 269 267 265 261 259 258 258 259 260 260 260 260 259 259 259 258 257 256 255 253 245 234 227 226 227 226 222 220 218 216 219 223 225 226 228 231 235 239 243 246
178 176 176 180 184 189 196 205 214 219 223 230 234 239 246 249 252 255 256 260 270 275 276 276 274 272 272 271 269 267 264 262 260 259 258 257 257 255 254 254 253 248 242 234 225 221 220 223 223 220 215 214 216 219 220 221 223 226 230 234 237 240 244
233 233 231 229 227 226 225 227 230 233 236 240 242 244 249 253 256 256 252 249 252 259 265 268 270 273 274 275 276 276 271 266 264 261 258 257 255 252 250 250 246 237 231 229 224 219 218 220 220 217 216 221 225 220 215 216 219 221 224 227 230 234 241
250 250 250 249 248 247 245 245 245 246 246 247 247 247 247 248 251 250 248 246 247 250 255 257 260 265 269 271 275 278 277 273 270 268 263 260 255 249 246 244 238 231 228 227 223 220 219 218 217 216 221 225 223 218 216 218 219 219 221 224 230 238 247
259 258 256 254 254 252 251 250 251 252 253 253 254 253 251 250 250 250 249 249 250 250 250 252 254 257 261 265 269 274 277 276 272 270 266 261 254 246 241 238 233 231 231 228 225 223 222 221 219 221 224 224 217 215 218 222 224 225 227 232 240 248 256
271 267 264 262 261 259 256 255 254 253 254 255 255 256 255 253 252 251 251 251 252 252 251 251 253 255 256 258 262 267 269 267 266 267 265 260 252 241 237 235 231 232 236 235 232 227 221 219 222 225 226 223 217 218 223 228 230 231 233 239 247 254 261
281 278 275 271 269 268 265 263 260 258 256 255 255 255 256 256 254 254 253 252 253 255 254 253 254 255 254 255 259 262 260 258 258 260 261 258 248 238 237 239 235 233 235 235 231 225 220 220 223 225 224 223 221 224 228 230 232 234 238 244 252 259 266